Location: Derby
(52.9213°N, 1.4761°W)
Time: 15:47:31
(UTC+01:00)

Vanguard 2 Rocket - Pass Details

Date: 23 May 2025
Orbit: 554 x 3293 km, 32.9° (Epoch: 14 June)

Event Time Altitude Azimuth Distance (km) Brightness Sun altitude
Rises 02:59:32 0° 260° (W) 6,686 11.0 -12.2°
Reaches altitude 10° 03:05:40 10° 249° (WSW) 5,230 10.3 -11.8°
Maximum altitude 03:15:32 23° 206° (SSW) 3,379 9.2 -11.0°
Drops below altitude 10° 03:22:28 10° 158° (SSE) 3,541 9.6 -10.5°
Sets 03:25:38 0° 144° (SE) 4,142 10.1 -10.2°
